Location: Boiro
(42.6475°N, 8.8834°W)
Time: 17:15:25
(UTC+01:00)

Tiros 1 despin weight - Pass Details

Date: 08 December 2021
Orbit: 592 x 641 km, 48.2° (Epoch: 25 January)

Event Time Altitude Azimuth Distance (km) Brightness Sun altitude
Rises 19:06:51 0° 292° (WNW) 2,825 ? -11.6°
Reaches altitude 10° 19:09:15 10° 284° (WNW) 1,921 ? -12.0°
Maximum altitude 19:13:17 36° 218° (SW) 946 ? -12.7°
Drops below altitude 10° 19:17:19 10° 152° (SSE) 1,922 ? -13.4°
Sets 19:19:44 0° 143° (SE) 2,826 ? -13.8°
